QPF
0.00 0.00 0.00 0.00 0.00 0.00 0.00 0.00 0.00 0.00 0.00 0.00 0.00 0.00 0.00 0.00 0.00 0.00 0.00 0.00 0.00 0.00 0.00 0.00 0.00 0.00 0.00 0.00 0.00 0.01 0.02 0.00 0.00 0.00 0.00 0.00 0.00 0.00 0.00 0.00 0.00 0.00 0.00 0.00 0.00
0.00 0.00 0.00 0.00 0.00 0.00 0.00 0.00 0.00 0.00 0.00 0.00 0.00 0.00 0.00 0.00 0.00 0.00 0.00 0.00 0.00 0.00 0.00 0.00 0.00 0.00 0.00 0.01 0.01 0.02 0.01 0.00 0.00 0.00 0.00 0.00 0.00 0.00 0.00 0.00 0.00 0.00 0.00 0.00 0.00
0.00 0.00 0.00 0.00 0.00 0.00 0.00 0.00 0.00 0.00 0.00 0.00 0.00 0.00 0.00 0.00 0.00 0.00 0.00 0.00 0.00 0.00 0.00 0.00 0.00 0.00 0.00 0.01 0.02 0.03 0.00 0.00 0.00 0.00 0.00 0.00 0.00 0.00 0.00 0.00 0.00 0.00 0.00 0.00 0.00
0.00 0.00 0.00 0.00 0.00 0.00 0.00 0.00 0.00 0.00 0.00 0.00 0.00 0.00 0.00 0.00 0.00 0.00 0.00 0.00 0.00 0.00 0.00 0.00 0.00 0.00 0.00 0.00 0.01 0.02 0.00 0.00 0.00 0.00 0.00 0.00 0.00 0.00 0.00 0.00 0.00 0.00 0.00 0.00 0.00
0.00 0.00 0.00 0.00 0.00 0.00 0.00 0.00 0.00 0.00 0.00 0.00 0.00 0.00 0.00 0.00 0.00 0.00 0.00 0.00 0.00 0.00 0.00 0.00 0.00 0.00 0.00 0.00 0.00 0.00 0.00 0.00 0.00 0.00 0.01 0.00 0.00 0.00 0.00 0.00 0.00 0.00 0.00 0.00 0.00
0.00 0.00 0.00 0.00 0.00 0.00 0.00 0.00 0.00 0.00 0.00 0.00 0.00 0.00 0.00 0.00 0.00 0.00 0.00 0.00 0.00 0.00 0.00 0.00 0.00 0.00 0.00 0.00 0.00 0.00 0.00 0.00 0.00 0.00 0.00 0.00 0.00 0.00 0.00 0.00 0.00 0.00 0.00 0.00 0.00
0.00 0.00 0.00 0.00 0.00 0.00 0.00 0.00 0.00 0.00 0.00 0.00 0.00 0.00 0.00 0.00 0.00 0.00 0.00 0.00 0.00 0.00 0.00 0.00 0.00 0.00 0.00 0.00 0.00 0.00 0.00 0.00 0.00 0.00 0.00 0.00 0.00 0.00 0.00 0.00 0.00 0.00 0.00 0.00 0.00
0.00 0.00 0.00 0.00 0.00 0.00 0.00 0.00 0.00 0.00 0.00 0.00 0.00 0.00 0.00 0.00 0.00 0.00 0.00 0.00 0.00 0.00 0.00 0.00 0.00 0.00 0.00 0.00 0.00 0.00 0.00 0.00 0.00 0.00 0.00 0.01 0.00 0.00 0.00 0.00 0.00 0.00 0.00 0.00 0.00
0.00 0.00 0.00 0.00 0.00 0.00 0.00 0.00 0.00 0.00 0.00 0.00 0.00 0.00 0.00 0.00 0.00 0.00 0.00 0.00 0.00 0.00 0.00 0.00 0.00 0.00 0.00 0.00 0.00 0.00 0.00 0.00 0.00 0.00 0.00 0.01 0.00 0.00 0.00 0.00 0.00 0.00 0.00 0.00 0.00
0.00 0.00 0.00 0.00 0.00 0.00 0.00 0.00 0.00 0.00 0.00 0.00 0.00 0.00 0.00 0.00 0.00 0.00 0.00 0.00 0.00 0.00 0.01 0.00 0.00 0.00 0.00 0.03 0.02 0.01 0.01 0.00 0.00 0.00 0.03 0.02 0.01 0.00 0.00 0.00 0.00 0.00 0.00 0.00 0.00
0.00 0.00 0.00 0.00 0.00 0.00 0.00 0.00 0.00 0.00 0.00 0.00 0.00 0.00 0.00 0.00 0.00 0.00 0.00 0.00 0.00 0.00 0.00 0.00 0.02 0.02 0.01 0.01 0.01 0.01 0.00 0.00 0.00 0.00 0.00 0.02 0.02 0.00 0.00 0.01 0.00 0.00 0.00 0.00 0.00
0.00 0.00 0.00 0.00 0.00 0.00 0.00 0.00 0.00 0.00 0.00 0.00 0.00 0.00 0.00 0.00 0.00 0.00 0.00 0.00 0.00 0.00 0.00 0.01 0.01 0.00 0.00 0.00 0.00 0.00 0.00 0.00 0.00 0.00 0.00 0.01 0.02 0.00 0.00 0.00 0.00 0.00 0.00 0.00 0.00
0.00 0.00 0.00 0.00 0.00 0.00 0.00 0.00 0.00 0.00 0.00 0.00 0.00 0.00 0.00 0.00 0.00 0.00 0.00 0.00 0.00 0.00 0.00 0.00 0.00 0.00 0.01 0.00 0.00 0.00 0.00 0.00 0.00 0.00 0.00 0.01 0.03 0.02 0.00 0.00 0.00 0.00 0.00 0.00 0.00
0.00 0.00 0.00 0.00 0.00 0.00 0.00 0.00 0.00 0.00 0.00 0.00 0.00 0.00 0.00 0.00 0.00 0.00 0.00 0.00 0.00 0.00 0.00 0.00 0.00 0.00 0.00 0.01 0.01 0.00 0.00 0.00 0.00 0.00 0.02 0.02 0.01 0.02 0.01 0.00 0.00 0.00 0.00 0.00 0.00
0.00 0.00 0.00 0.00 0.00 0.00 0.00 0.00 0.00 0.00 0.00 0.00 0.00 0.00 0.00 0.00 0.00 0.00 0.00 0.00 0.00 0.00 0.00 0.00 0.00 0.00 0.00 0.00 0.00 0.00 0.00 0.00 0.00 0.00 0.00 0.01 0.01 0.01 0.01 0.03 0.02 0.01 0.01 0.00 0.01
0.00 0.00 0.00 0.00 0.00 0.00 0.00 0.00 0.00 0.00 0.00 0.00 0.00 0.00 0.00 0.00 0.00 0.00 0.00 0.00 0.00 0.00 0.00 0.00 0.00 0.00 0.00 0.00 0.00 0.00 0.00 0.00 0.01 0.01 0.00 0.00 0.01 0.00 0.00 0.01 0.00 0.00 0.01 0.00 0.00
0.00 0.00 0.00 0.00 0.00 0.00 0.00 0.00 0.00 0.00 0.00 0.00 0.00 0.00 0.00 0.00 0.00 0.00 0.00 0.00 0.00 0.00 0.00 0.00 0.00 0.00 0.00 0.00 0.00 0.00 0.00 0.02 0.04 0.02 0.00 0.00 0.01 0.00 0.00 0.00 0.00 0.00 0.00 0.00 0.00
0.00 0.00 0.00 0.00 0.00 0.00 0.00 0.00 0.00 0.00 0.00 0.00 0.00 0.00 0.00 0.00 0.00 0.00 0.00 0.00 0.00 0.00 0.00 0.00 0.00 0.00 0.00 0.00 0.00 0.00 0.00 0.01 0.02 0.02 0.02 0.01 0.00 0.00 0.00 0.00 0.00 0.00 0.00 0.00 0.00
0.00 0.00 0.00 0.00 0.00 0.00 0.00 0.00 0.00 0.00 0.00 0.00 0.00 0.00 0.00 0.00 0.00 0.00 0.00 0.00 0.00 0.00 0.00 0.00 0.00 0.00 0.00 0.00 0.00 0.00 0.00 0.00 0.00 0.02 0.04 0.01 0.00 0.00 0.00 0.00 0.00 0.00 0.00 0.00 0.00
0.00 0.00 0.00 0.00 0.00 0.00 0.00 0.00 0.00 0.00 0.00 0.00 0.00 0.00 0.00 0.00 0.00 0.00 0.00 0.00 0.00 0.00 0.00 0.00 0.00 0.00 0.00 0.00 0.00 0.00 0.00 0.00 0.00 0.01 0.02 0.00 0.00 0.00 0.00 0.00 0.00 0.00 0.00 0.00 0.00
0.00 0.00 0.00 0.00 0.00 0.00 0.00 0.00 0.00 0.00 0.00 0.00 0.00 0.00 0.00 0.00 0.00 0.00 0.00 0.00 0.00 0.00 0.00 0.00 0.00 0.00 0.00 0.00 0.00 0.00 0.00 0.00 0.00 0.00 0.01 0.00 0.00 0.00 0.00 0.00 0.00 0.00 0.00 0.00 0.00
0.00 0.00 0.00 0.00 0.00 0.00 0.00 0.00 0.00 0.00 0.00 0.00 0.00 0.00 0.00 0.00 0.00 0.00 0.00 0.00 0.00 0.00 0.00 0.00 0.00 0.00 0.00 0.00 0.00 0.00 0.00 0.00 0.00 0.00 0.00 0.00 0.00 0.00 0.00 0.00 0.00 0.00 0.00 0.00 0.00
0.00 0.00 0.00 0.00 0.00 0.00 0.00 0.00 0.00 0.00 0.00 0.00 0.00 0.00 0.00 0.00 0.00 0.00 0.00 0.00 0.00 0.00 0.00 0.00 0.00 0.00 0.00 0.00 0.00 0.00 0.00 0.00 0.00 0.00 0.00 0.00 0.00 0.00 0.00 0.00 0.00 0.00 0.00 0.00 0.00
0.00 0.00 0.00 0.00 0.00 0.00 0.00 0.00 0.00 0.00 0.00 0.00 0.00 0.00 0.00 0.00 0.00 0.00 0.00 0.00 0.00 0.00 0.00 0.00 0.00 0.00 0.00 0.00 0.00 0.00 0.00 0.00 0.00 0.00 0.00 0.00 0.00 0.00 0.00 0.00 0.00 0.00 0.00 0.00 0.00
0.00 0.00 0.00 0.00 0.00 0.00 0.00 0.00 0.00 0.00 0.00 0.00 0.00 0.00 0.00 0.00 0.00 0.00 0.00 0.00 0.00 0.00 0.00 0.00 0.00 0.00 0.00 0.00 0.00 0.00 0.00 0.00 0.00 0.00 0.00 0.00 0.00 0.00 0.00 0.00 0.00 0.00 0.00 0.00 0.00
0.00 0.00 0.00 0.00 0.00 0.00 0.00 0.00 0.00 0.00 0.00 0.00 0.00 0.00 0.00 0.00 0.00 0.00 0.00 0.00 0.00 0.00 0.00 0.00 0.00 0.00 0.00 0.00 0.00 0.00 0.00 0.00 0.00 0.00 0.00 0.00 0.00 0.00 0.00 0.00 0.00 0.00 0.00 0.00 0.00
0.00 0.00 0.00 0.00 0.00 0.00 0.00 0.00 0.00 0.00 0.00 0.00 0.00 0.00 0.00 0.00 0.00 0.00 0.00 0.00 0.00 0.00 0.00 0.00 0.00 0.00 0.00 0.00 0.00 0.00 0.00 0.00 0.00 0.00 0.00 0.00 0.00 0.00 0.00 0.00 0.00 0.00 0.00 0.00 0.00
MSLP
1019.60 1019.26 1018.98 1018.69 1018.43 1018.20 1017.92 1017.58 1017.27 1017.00 1016.78 1016.55 1016.38 1016.26 1016.18 1015.81 1015.32 1015.12 1015.72 1016.12 1015.64 1014.95 1014.31 1013.79 1013.40 1012.87 1012.83 1012.40 1012.46 1011.82 1010.23 1007.55 1006.15 1006.47 1005.94 1004.99 1004.43 1003.73 1003.84 1004.17 1004.09 1004.22 1004.50 1005.14 1005.96
1019.83 1019.52 1019.25 1018.98 1018.80 1018.60 1018.24 1017.86 1017.53 1017.30 1017.02 1016.85 1016.60 1016.27 1016.06 1015.81 1015.28 1015.23 1016.27 1016.19 1015.81 1015.36 1014.84 1014.25 1013.68 1013.21 1013.10 1013.07 1012.33 1011.55 1009.87 1007.33 1008.09 1007.35 1006.41 1005.50 1004.64 1004.56 1004.26 1004.36 1004.41 1004.68 1005.16 1005.23 1006.45
1020.09 1019.79 1019.51 1019.24 1019.06 1018.83 1018.47 1018.11 1017.85 1017.71 1017.49 1017.08 1016.48 1016.23 1016.06 1015.59 1015.22 1016.22 1016.30 1015.95 1015.80 1015.55 1015.12 1014.58 1013.87 1013.57 1013.30 1013.17 1013.05 1011.63 1009.87 1009.63 1008.76 1008.11 1007.63 1006.58 1005.32 1004.74 1004.69 1004.33 1004.66 1004.98 1005.91 1005.93 1006.38
1020.36 1020.04 1019.77 1019.53 1019.23 1019.00 1018.72 1018.41 1018.19 1017.87 1017.53 1016.69 1016.26 1016.05 1015.87 1015.55 1016.18 1016.74 1016.36 1016.01 1015.65 1015.47 1015.13 1014.65 1014.20 1013.89 1013.67 1013.31 1013.53 1013.65 1011.30 1010.61 1009.97 1008.83 1008.84 1007.45 1006.59 1005.33 1005.47 1004.49 1004.80 1005.12 1005.50 1005.89 1006.50
1020.60 1020.30 1019.98 1019.65 1019.38 1019.20 1018.94 1018.55 1018.12 1017.90 1017.73 1016.94 1016.43 1016.26 1015.78 1015.86 1017.15 1016.66 1016.16 1016.01 1015.70 1015.28 1015.01 1014.96 1014.67 1014.32 1013.95 1013.45 1013.23 1013.39 1013.15 1012.50 1011.80 1010.62 1009.51 1008.99 1007.70 1006.80 1005.76 1004.87 1004.59 1004.97 1005.43 1005.61 1006.31
1020.78 1020.47 1020.11 1019.81 1019.53 1019.33 1019.05 1018.66 1018.30 1018.14 1017.88 1017.21 1016.65 1016.51 1016.20 1016.77 1017.24 1016.62 1016.25 1015.67 1015.35 1015.04 1014.66 1014.75 1014.55 1014.45 1013.97 1013.75 1013.59 1013.20 1013.36 1012.66 1012.05 1011.01 1010.56 1009.48 1008.62 1008.10 1006.34 1005.83 1005.21 1004.98 1005.33 1005.36 1005.93
1020.88 1020.56 1020.21 1019.99 1019.65 1019.45 1019.16 1018.75 1018.44 1018.25 1017.97 1017.52 1016.80 1016.31 1016.61 1017.80 1017.16 1016.69 1016.04 1015.43 1014.71 1014.25 1013.83 1013.93 1014.12 1014.36 1013.84 1013.56 1013.22 1013.27 1012.97 1012.45 1012.14 1011.33 1010.99 1009.98 1009.17 1007.30 1007.50 1006.70 1005.80 1005.37 1005.43 1005.54 1005.60
1021.02 1020.63 1020.28 1020.01 1019.72 1019.36 1019.14 1018.80 1018.31 1018.19 1017.97 1017.52 1016.98 1016.38 1016.97 1017.38 1017.03 1016.11 1015.58 1014.75 1014.04 1013.52 1013.24 1013.04 1013.26 1013.67 1013.87 1013.85 1013.49 1013.66 1013.19 1012.36 1010.92 1010.88 1010.17 1010.67 1008.75 1008.06 1007.93 1007.38 1006.82 1005.99 1005.61 1005.60 1005.73
1021.20 1020.73 1020.28 1019.91 1019.62 1019.26 1018.88 1018.61 1018.38 1018.07 1017.41 1017.17 1016.99 1016.63 1017.39 1017.06 1016.53 1016.05 1015.53 1014.25 1013.60 1012.66 1012.35 1012.55 1013.10 1013.44 1013.55 1014.04 1014.47 1014.01 1013.52 1012.42 1010.89 1010.03 1009.77 1009.77 1009.23 1008.52 1008.05 1007.33 1007.12 1006.73 1005.73 1005.61 1005.77
1021.21 1020.81 1020.33 1019.87 1019.59 1019.04 1018.69 1018.42 1018.28 1018.23 1017.02 1016.89 1017.02 1017.13 1017.19 1017.20 1016.66 1016.20 1015.51 1014.22 1013.24 1012.40 1012.69 1012.98 1013.21 1013.49 1013.79 1014.44 1014.77 1014.30 1013.98 1012.63 1011.85 1010.91 1009.68 1009.26 1008.71 1008.38 1007.37 1007.25 1007.08 1006.66 1006.12 1005.78 1005.98
1021.24 1020.90 1020.44 1019.97 1019.65 1018.85 1018.15 1018.37 1018.80 1018.59 1018.16 1018.46 1018.61 1018.73 1018.54 1017.67 1016.76 1016.27 1015.24 1014.26 1013.53 1012.95 1013.42 1013.57 1014.36 1014.92 1015.14 1015.03 1015.15 1014.69 1014.05 1013.29 1012.13 1011.36 1011.12 1009.25 1008.64 1007.88 1007.37 1007.32 1007.40 1006.64 1006.33 1006.01 1006.02
1021.27 1020.91 1020.57 1020.13 1019.84 1019.10 1018.48 1019.15 1020.58 1020.95 1019.70 1018.62 1018.71 1018.77 1018.46 1017.69 1016.77 1015.97 1015.40 1015.21 1014.72 1014.58 1014.94 1015.25 1015.68 1015.78 1015.33 1015.01 1015.05 1014.96 1014.25 1013.25 1011.98 1011.56 1010.94 1009.26 1008.54 1008.36 1008.05 1007.48 1007.27 1007.07 1007.04 1006.55 1006.34
1021.39 1020.92 1020.57 1020.26 1019.97 1019.89 1020.02 1020.72 1020.90 1020.73 1020.07 1018.50 1018.40 1018.62 1017.79 1017.55 1017.31 1016.67 1016.34 1016.02 1015.98 1015.94 1016.14 1016.33 1016.92 1016.11 1015.95 1015.66 1015.39 1015.07 1014.90 1013.67 1012.77 1011.72 1010.52 1010.14 1009.11 1008.93 1008.21 1008.00 1008.09 1008.00 1008.05 1007.37 1006.90
1021.48 1021.10 1020.54 1020.03 1020.19 1019.89 1020.53 1021.00 1020.91 1020.83 1020.01 1019.20 1018.45 1018.87 1018.35 1017.84 1017.86 1017.35 1017.17 1016.94 1017.16 1017.10 1017.03 1017.04 1017.16 1016.84 1016.11 1015.97 1015.97 1015.48 1015.02 1013.91 1013.28 1012.82 1011.53 1010.90 1010.01 1009.61 1009.25 1008.88 1008.97 1009.41 1009.59 1009.17 1008.14
1021.50 1021.26 1020.94 1020.38 1020.45 1020.35 1021.24 1021.02 1020.89 1020.87 1020.61 1019.95 1019.22 1019.05 1019.16 1019.07 1019.11 1017.70 1017.74 1017.16 1017.95 1017.86 1018.04 1018.12 1017.82 1017.17 1016.89 1016.84 1016.55 1015.97 1015.39 1014.83 1013.90 1013.09 1012.74 1011.77 1011.30 1011.63 1010.38 1010.74 1012.74 1013.11 1012.95 1012.25 1010.80
1021.58 1021.34 1020.81 1020.62 1020.36 1021.07 1021.01 1021.04 1021.06 1021.30 1021.85 1021.16 1020.21 1020.28 1019.97 1019.46 1019.28 1018.57 1018.71 1018.08 1018.30 1018.19 1018.05 1018.39 1017.56 1017.55 1017.56 1016.43 1016.32 1016.47 1015.72 1014.50 1013.99 1013.77 1013.35 1012.47 1012.89 1014.69 1015.20 1015.55 1015.08 1015.00 1014.54 1013.92 1012.52
1021.57 1021.44 1020.93 1020.72 1021.01 1020.76 1020.89 1020.98 1021.36 1022.32 1023.13 1022.46 1021.92 1021.50 1020.81 1020.44 1019.76 1019.16 1019.25 1019.77 1020.57 1020.10 1019.56 1018.78 1017.91 1017.57 1017.28 1016.87 1016.77 1016.79 1016.34 1015.58 1015.25 1014.76 1013.79 1012.70 1014.34 1017.55 1017.62 1017.75 1017.47 1016.87 1016.26 1015.24 1014.07
1021.37 1021.25 1020.72 1020.51 1020.67 1020.56 1020.60 1021.08 1022.41 1024.38 1024.50 1024.08 1023.58 1022.63 1021.65 1021.36 1021.07 1020.52 1020.60 1021.23 1021.88 1022.08 1021.43 1020.62 1018.87 1018.13 1017.81 1018.04 1018.02 1017.06 1016.88 1016.70 1015.98 1014.79 1014.05 1014.07 1016.51 1019.00 1019.20 1019.11 1018.64 1018.13 1017.36 1016.38 1015.23
1021.11 1020.79 1020.47 1020.58 1020.28 1020.44 1020.81 1022.53 1025.20 1025.86 1026.02 1025.66 1024.33 1023.63 1022.95 1022.58 1022.57 1021.77 1022.08 1022.68 1022.98 1022.92 1023.18 1022.29 1020.77 1019.31 1018.57 1018.28 1017.82 1017.37 1017.37 1017.88 1016.93 1014.78 1014.78 1016.48 1018.45 1019.12 1019.67 1019.78 1019.27 1018.56 1017.89 1017.01 1016.40
1021.31 1020.87 1021.04 1020.57 1020.13 1020.23 1021.55 1024.25 1025.71 1026.32 1026.51 1026.29 1025.69 1025.26 1024.75 1024.17 1023.96 1023.37 1023.29 1023.41 1023.93 1023.96 1023.23 1023.25 1022.30 1019.84 1019.44 1018.89 1018.69 1018.38 1018.49 1018.23 1017.48 1016.74 1016.66 1017.94 1019.65 1021.18 1020.79 1020.38 1020.09 1019.69 1018.88 1018.22 1017.48
1021.46 1021.08 1021.23 1020.59 1020.48 1021.23 1023.44 1025.16 1025.84 1026.26 1026.86 1026.95 1026.71 1026.49 1026.19 1026.14 1025.66 1025.09 1024.72 1024.24 1024.37 1024.18 1023.66 1023.60 1023.41 1021.14 1020.13 1020.41 1020.67 1019.66 1019.93 1019.28 1019.17 1018.60 1018.63 1019.13 1021.29 1022.01 1022.20 1021.66 1021.28 1020.69 1020.20 1019.37 1018.37
1021.47 1021.48 1021.23 1020.76 1021.41 1022.59 1024.49 1025.51 1026.37 1026.19 1026.64 1026.88 1027.21 1027.10 1027.08 1027.00 1026.77 1026.29 1025.75 1025.22 1025.06 1025.12 1024.88 1024.38 1023.99 1022.91 1021.65 1021.09 1021.03 1021.52 1021.83 1021.38 1020.90 1020.76 1020.54 1020.92 1022.97 1022.97 1022.92 1022.26 1021.74 1021.30 1020.27 1019.65 1019.22
1022.42 1022.05 1021.30 1021.04 1022.78 1023.77 1025.04 1025.61 1026.06 1026.24 1026.39 1026.69 1027.05 1027.33 1027.57 1027.72 1027.72 1026.93 1026.30 1025.54 1025.58 1025.75 1025.82 1025.60 1024.82 1024.12 1022.23 1021.89 1021.47 1021.74 1022.31 1022.60 1022.02 1021.97 1022.77 1022.77 1023.41 1023.15 1022.69 1022.74 1022.46 1021.83 1020.82 1020.20 1019.30
1022.95 1022.99 1022.62 1023.01 1024.08 1024.54 1025.28 1025.68 1025.92 1026.27 1026.65 1026.97 1027.28 1027.34 1027.69 1027.72 1027.69 1027.61 1027.00 1026.07 1026.21 1026.26 1026.00 1025.87 1026.04 1025.72 1025.14 1024.00 1023.53 1023.16 1023.16 1023.42 1023.28 1024.00 1024.40 1024.34 1024.40 1024.07 1023.68 1023.28 1022.44 1021.68 1021.13 1020.58 1019.84
1023.92 1025.25 1025.76 1024.79 1024.76 1025.29 1025.72 1026.01 1026.03 1026.35 1026.85 1027.07 1027.23 1027.69 1028.38 1028.77 1028.44 1027.97 1027.63 1027.38 1026.99 1027.20 1026.86 1027.17 1027.19 1026.22 1025.18 1024.00 1023.50 1023.49 1023.67 1023.82 1024.58 1025.05 1025.10 1024.72 1024.30 1023.91 1023.34 1022.92 1022.43 1021.98 1021.87 1020.60 1019.87
1025.86 1026.56 1026.23 1026.03 1025.99 1025.93 1025.81 1025.96 1026.23 1026.33 1026.88 1026.92 1027.60 1027.69 1028.29 1028.90 1028.55 1028.75 1028.73 1028.53 1028.35 1028.15 1028.24 1028.22 1027.81 1026.79 1025.22 1023.80 1023.31 1023.42 1023.60 1024.12 1024.55 1024.94 1025.03 1024.92 1024.38 1023.78 1023.41 1023.09 1022.62 1022.36 1021.35 1020.34 1020.21
1026.88 1027.36 1027.29 1026.52 1026.22 1026.35 1026.39 1026.33 1026.38 1026.78 1026.37 1026.73 1027.44 1028.10 1028.25 1028.07 1028.00 1027.99 1028.14 1028.22 1028.41 1029.05 1029.18 1029.35 1029.09 1028.13 1026.02 1024.13 1023.49 1023.48 1023.26 1023.89 1024.47 1024.78 1025.41 1025.30 1024.67 1024.03 1023.71 1023.29 1022.83 1022.18 1021.54 1021.00 1020.68
Thickness
5620 5619 5617 5615 5613 5610 5607 5604 5601 5596 5590 5584 5575 5566 5556 5548 5542 5542 5520 5506 5501 5500 5505 5513 5519 5527 5531 5545 5546 5553 5563 5596 5620 5621 5630 5657 5657 5680 5683 5676 5684 5695 5692 5698 5698
5617 5615 5613 5611 5607 5604 5600 5596 5592 5585 5578 5572 5568 5561 5550 5538 5527 5510 5485 5471 5462 5460 5463 5470 5483 5493 5500 5507 5523 5527 5549 5593 5599 5609 5615 5636 5644 5651 5654 5661 5665 5674 5676 5692 5682
5614 5611 5609 5606 5602 5597 5594 5589 5583 5578 5574 5567 5559 5547 5533 5521 5501 5466 5441 5436 5427 5424 5432 5438 5449 5461 5469 5481 5484 5510 5534 5567 5576 5585 5592 5606 5622 5640 5637 5645 5657 5660 5659 5676 5678
5609 5607 5605 5601 5597 5593 5589 5584 5579 5574 5566 5561 5550 5536 5520 5504 5475 5442 5416 5400 5401 5400 5402 5409 5420 5427 5438 5447 5455 5451 5508 5531 5548 5561 5565 5585 5607 5618 5620 5638 5654 5660 5659 5666 5670
5605 5603 5601 5598 5593 5589 5585 5580 5575 5567 5556 5549 5537 5523 5507 5478 5438 5418 5404 5389 5380 5380 5380 5382 5388 5398 5406 5425 5435 5428 5455 5473 5491 5517 5538 5555 5574 5594 5609 5629 5647 5654 5647 5658 5661
5602 5600 5598 5594 5590 5585 5580 5575 5568 5558 5545 5535 5523 5502 5485 5446 5417 5397 5386 5385 5378 5374 5371 5367 5371 5376 5386 5397 5407 5428 5434 5453 5466 5498 5510 5534 5550 5568 5599 5610 5626 5640 5638 5650 5655
5600 5597 5594 5591 5587 5582 5576 5571 5562 5550 5537 5525 5513 5492 5462 5425 5404 5389 5381 5379 5379 5374 5371 5364 5363 5361 5377 5383 5403 5413 5419 5439 5450 5472 5487 5510 5526 5558 5575 5588 5605 5627 5632 5643 5650
5597 5594 5592 5588 5584 5580 5574 5566 5558 5545 5532 5519 5504 5486 5446 5418 5400 5389 5385 5383 5381 5378 5371 5367 5361 5357 5358 5371 5383 5389 5406 5409 5465 5466 5486 5484 5514 5542 5557 5567 5583 5608 5620 5629 5640
5593 5591 5590 5587 5582 5578 5572 5564 5553 5540 5532 5516 5498 5475 5434 5417 5402 5390 5385 5388 5385 5386 5379 5370 5360 5355 5360 5350 5346 5367 5372 5406 5452 5473 5480 5477 5495 5524 5540 5558 5568 5585 5610 5621 5631
5590 5589 5587 5585 5580 5576 5570 5561 5548 5534 5527 5512 5495 5470 5450 5418 5394 5387 5382 5387 5388 5389 5377 5366 5360 5354 5355 5344 5324 5347 5361 5406 5411 5439 5466 5478 5493 5518 5537 5548 5561 5576 5594 5608 5616
5589 5586 5585 5582 5577 5574 5570 5560 5544 5534 5517 5491 5467 5439 5418 5409 5395 5387 5389 5388 5387 5387 5365 5367 5343 5332 5337 5345 5341 5357 5369 5371 5409 5431 5423 5458 5484 5507 5531 5541 5545 5564 5580 5593 5605
5586 5584 5581 5578 5572 5569 5565 5549 5521 5507 5500 5493 5468 5446 5426 5413 5402 5396 5391 5379 5375 5365 5357 5346 5324 5337 5347 5353 5355 5355 5350 5371 5418 5428 5420 5459 5481 5498 5513 5532 5543 5557 5565 5580 5597
5583 5581 5579 5575 5569 5561 5549 5532 5518 5506 5491 5493 5473 5452 5439 5417 5397 5385 5381 5372 5363 5356 5349 5337 5330 5343 5339 5334 5330 5341 5341 5373 5405 5422 5428 5440 5467 5487 5509 5522 5531 5542 5553 5567 5584
5579 5578 5578 5575 5567 5559 5543 5528 5516 5502 5494 5484 5471 5448 5439 5414 5395 5387 5374 5368 5357 5348 5346 5341 5336 5332 5326 5326 5337 5325 5363 5387 5403 5399 5425 5434 5449 5478 5498 5514 5526 5534 5536 5548 5564
5577 5574 5571 5568 5560 5554 5537 5526 5515 5499 5487 5482 5467 5450 5430 5407 5393 5392 5380 5377 5349 5350 5344 5336 5325 5332 5329 5332 5340 5327 5353 5367 5391 5407 5413 5430 5430 5438 5489 5503 5456 5461 5471 5494 5520
5575 5572 5570 5564 5560 5546 5536 5527 5514 5510 5464 5461 5465 5441 5425 5416 5403 5395 5379 5381 5369 5362 5360 5340 5354 5346 5339 5355 5351 5339 5344 5378 5393 5395 5410 5433 5426 5392 5403 5413 5426 5447 5463 5478 5499
5574 5570 5567 5561 5551 5547 5536 5528 5531 5487 5484 5465 5446 5437 5427 5414 5408 5402 5382 5358 5339 5335 5333 5354 5352 5357 5357 5349 5347 5343 5344 5357 5388 5364 5364 5450 5428 5376 5386 5397 5409 5429 5442 5465 5482
5575 5571 5568 5562 5554 5547 5537 5538 5505 5486 5468 5454 5442 5427 5437 5420 5405 5400 5386 5360 5346 5336 5333 5327 5342 5354 5356 5343 5341 5351 5361 5371 5381 5368 5396 5428 5390 5364 5374 5381 5400 5414 5427 5448 5466
5576 5573 5568 5560 5555 5547 5542 5504 5469 5460 5450 5435 5436 5432 5430 5420 5403 5401 5376 5355 5339 5340 5318 5324 5325 5357 5360 5360 5359 5353 5365 5350 5365 5419 5421 5408 5378 5379 5378 5378 5389 5403 5422 5436 5453
5573 5572 5563 5559 5556 5550 5532 5495 5474 5461 5449 5439 5432 5424 5413 5409 5394 5391 5377 5367 5345 5342 5348 5330 5322 5363 5359 5365 5361 5359 5361 5367 5364 5393 5413 5390 5363 5346 5360 5369 5383 5387 5402 5417 5434
5572 5572 5561 5559 5553 5542 5506 5484 5477 5467 5448 5434 5425 5414 5409 5392 5383 5382 5375 5375 5357 5348 5350 5333 5323 5351 5370 5336 5332 5349 5340 5363 5355 5383 5404 5420 5348 5343 5344 5364 5369 5379 5385 5397 5413
5571 5570 5559 5558 5549 5529 5498 5485 5468 5469 5455 5443 5427 5418 5404 5390 5378 5375 5376 5370 5364 5350 5336 5341 5324 5327 5340 5340 5356 5344 5320 5328 5359 5349 5360 5377 5331 5340 5345 5355 5367 5372 5383 5391 5399
5564 5559 5558 5553 5530 5520 5495 5490 5477 5468 5461 5446 5435 5423 5411 5391 5361 5371 5376 5383 5367 5353 5333 5328 5323 5329 5358 5351 5359 5333 5342 5329 5323 5349 5328 5330 5342 5336 5338 5343 5353 5363 5376 5384 5393
5560 5554 5548 5535 5520 5515 5500 5494 5486 5465 5455 5444 5432 5428 5418 5409 5397 5361 5379 5389 5373 5360 5362 5350 5322 5323 5308 5317 5333 5323 5341 5331 5323 5312 5313 5311 5316 5317 5328 5335 5350 5358 5369 5376 5380
5545 5524 5510 5522 5517 5505 5494 5484 5486 5475 5453 5448 5441 5429 5404 5366 5381 5391 5386 5366 5373 5362 5354 5329 5316 5338 5337 5350 5352 5349 5334 5333 5306 5306 5303 5317 5327 5321 5332 5341 5345 5352 5356 5370 5378
5527 5511 5511 5508 5502 5500 5496 5483 5481 5474 5455 5454 5429 5434 5400 5374 5384 5359 5354 5352 5347 5344 5343 5339 5325 5347 5346 5363 5359 5348 5350 5341 5334 5324 5319 5320 5332 5320 5324 5328 5341 5341 5355 5365 5368
5517 5508 5502 5511 5509 5497 5489 5481 5475 5465 5465 5457 5439 5420 5398 5402 5396 5390 5382 5373 5362 5340 5328 5319 5315 5313 5335 5375 5366 5333 5322 5326 5311 5314 5318 5309 5308 5324 5324 5330 5328 5338 5346 5353 5357